This is the latest recevied weather packets stored in our database for station/object IW1CBG-3. If no packets are shown the sender has not sent any weather packets the latest 10 day(s).
| Time | Temp. | Humidity | Pressure | Rain* | Wind** | Luminosity | Snow |
|---|---|---|---|---|---|---|---|
| 1777846666 | 10.56° C | 89% | 1030.6 hPa | 0 mm | - | - | - |
| 1777846064 | 10.56° C | 89% | 1030.8 hPa | 0 mm | - | - | - |
| 1777845465 | 10.56° C | 89% | 1030.8 hPa | 0 mm | - | - | - |
| 1777844866 | 10.56° C | 90% | 1030.8 hPa | 0 mm | - | - | - |
| 1777844264 | 10.56° C | 90% | 1030.8 hPa | 0 mm | - | - | - |
| 1777843664 | 10.56° C | 88% | 1030.7 hPa | 0 mm | - | - | - |
| 1777843064 | 10.56° C | 88% | 1030.8 hPa | 0 mm | - | - | - |
| 1777842464 | 10.56° C | 90% | 1030.6 hPa | 0 mm | - | - | - |
| 1777841865 | 10° C | 90% | 1030.8 hPa | 0 mm | - | - | - |
| 1777840665 | 10.56° C | 89% | 1030.5 hPa | 0 mm | - | - | - |
| 1777840065 | 10.56° C | 88% | 1030.4 hPa | 0 mm | - | - | - |
| 1777839464 | 10.56° C | 88% | 1030.5 hPa | 0 mm | - | - | - |
| 1777838864 | 10.56° C | 87% | 1030.4 hPa | 0 mm | - | - | - |
| 1777838264 | 10.56° C | 87% | 1030.3 hPa | 0 mm | - | - | - |
| 1777837665 | 11.11° C | 85% | 1030.1 hPa | 0 mm | - | - | - |
| 1777837065 | 11.11° C | 85% | 1030 hPa | 0 mm | - | - | - |
| 1777836468 | 11.67° C | 84% | 1029.9 hPa | 0 mm | - | - | - |
| 1777835865 | 11.67° C | 83% | 1029.8 hPa | 0 mm | - | - | - |
| 1777835265 | 12.22° C | 81% | 1029.6 hPa | 0 mm | - | - | - |
| 1777834664 | 11.67° C | 82% | 1029.4 hPa | 0 mm | - | - | - |
| 1777834065 | 12.22° C | 81% | 1029.1 hPa | 0 mm | - | - | - |
| 1777833465 | 12.78° C | 79% | 1029.1 hPa | 0 mm | - | - | - |
| 1777832865 | 12.78° C | 78% | 1029.3 hPa | 0 mm | - | - | - |
| 1777832265 | 12.78° C | 78% | 1028.9 hPa | 0 mm | - | - | - |
| 1777831664 | 12.78° C | 78% | 1028.9 hPa | 0 mm | - | - | - |
* Rain latest hour (hover to see other rain measurements)
** Current wind speed in m/s (hover to see current wind gust speed)